FOX-1A (AO-85)

Last updated on Mon Nov 03 2025 00:03:21 GMT+0000 (Coordinated Universal Time)

1 40967U 15058D 25306.25366943 .00002775 00000+0 25903-3 0 9991 2 40967 64.7749 263.3659 0139748 145.2255 215.8090 14.89243285 79754
UTC large
Height (km)
Speed (km/s)
/
Latitude / Longitude
Inclination (degrees)
Orbital Period (minutes)
Azimuth
Elevation
Range (km)
Doppler Factor

Next 0 passes for location: London (51.5072 / 0.1276)

Sorry there are no passes over London.